Location: Chowchilla Mountain
(37.5599°N, 119.7546°W)
Time: 18:38:33
(UTC+00:00)

Cosmos 1953 - Pass Details

Date: 05 August 2024
Orbit: 505 x 524 km, 82.5° (Epoch: 11 September)

Event Time Altitude Azimuth Distance (km) Brightness Sun altitude
Rises 12:12:19 0° 175° (S) 2,592 5.5 -10.5°
Reaches altitude 10° 12:14:28 10° 170° (S) 1,714 4.6 -10.2°
Maximum altitude 12:18:06 51° 94° (E) 645 3.1 -9.5°
Drops below altitude 10° 12:21:48 10° 18° (NNE) 1,737 5.6 -8.9°
Sets 12:23:59 0° 13° (NNE) 2,632 6.5 -8.5°
